Flag for Canada Weather past 2 weeks in Markham, Ontario, Canada

Now
50 °F

Passing clouds.


Feels Like: 44 °F
Forecast: 46 / 57 °F
Wind: 17 mph from North

Location: Toronto Buttonville

Current Time: Sep 22, 2014 at 2:36:48 AM

Latest Report: Sep 22, 2014 at 2:00 AM


Visibility: 15 mi

Pressure: 29.82 "Hg

Humidity: 76%

Dew point: 43 °F

Location of MarkhamLocation

Historic Weather in Markham — Graph

°F

Markham temperature yesterday

Maximum temperature yesterday: 75 °F (at 1:00 PM)
Minimum temperature yesterday: 52 °F (at 11:00 PM)
Average temperature yesterday: 66 °F

Past Weeks' High & Low Weather Summary

 TemperatureHumidityPressure
High75 °F (Sep 20, 3:00 PM)100% (Sep 8, 2:00 AM)30.37 "Hg (Sep 8, 2:00 AM)
Low37 °F (Sep 19, 6:00 AM)43% (Sep 17, 4:00 PM)29.52 "Hg (Sep 11, 4:00 AM)
Average57 °F77%30.08 "Hg
* Reported Sep 7 1:00 AM — Sep 22 1:00 AM, Markham, Weather by CustomWeather, © 2014

Note: Actual official high and low records may vary slightly from our data, if they occured in-between our weather recording intervals... More about our weather records

Advertising

Markham weather history for previous 24 hours

 ConditionsComfort  
Time TempWeatherWind HumidityBarometerVisibility
1:00 AM
Sep 22
48 °FOvercast.15 mph87%29.80 "Hg14 mi
12:00 AM50 °FSprinkles. Overcast.15 mph88%29.78 "Hg9 mi
11:00 PM
Sep 21
52 °FSprinkles. Overcast.17 mph94%29.74 "Hg7 mi
10:00 PM54 °FSprinkles. Passing clouds.14 mph94%29.70 "Hg10 mi
9:00 PM55 °FSprinkles. Overcast.8 mph94%29.67 "Hg11 mi
8:00 PM59 °FSprinkles. Partly sunny.12 mph82%29.64 "Hg10 mi
7:00 PM61 °FScattered clouds.14 mph83%29.61 "Hg15 mi
6:00 PM70 °FScattered clouds.10 mph57%29.58 "Hg15 mi
5:00 PM73 °FPartly sunny.14 mph50%29.56 "Hg15 mi
4:00 PM72 °FPartly sunny.14 mph53%29.54 "Hg15 mi
3:00 PM73 °FPartly sunny.14 mph57%29.54 "Hg15 mi
2:00 PM73 °FPartly sunny.13 mph61%29.54 "Hg15 mi
1:00 PM75 °FPartly sunny.14 mph61%29.53 "Hg15 mi
12:00 PM73 °FPartly sunny.14 mph65%29.53 "Hg15 mi
11:00 AM70 °FPartly sunny.13 mph83%29.52 "Hg15 mi
9:55 AMN/ASprinkles.9 mphN/AN/A3 mi
9:00 AM64 °FSprinkles. Fog.7 mph94%29.56 "Hg3 mi
8:53 AMN/ASprinkles.5 mphN/AN/A2 mi
8:04 AMN/ASprinkles.5 mphN/AN/A2 mi
7:00 AM64 °FPassing clouds.7 mph88%29.63 "Hg12 mi
6:00 AM66 °FMostly cloudy.8 mph83%29.66 "Hg15 mi
5:00 AM66 °FOvercast.3 mph83%29.67 "Hg15 mi
4:00 AM66 °FPassing clouds.5 mph83%29.68 "Hg15 mi
3:00 AM68 °FPassing clouds.7 mph78%29.70 "Hg15 mi
2:00 AM68 °FPassing clouds.7 mph78%29.71 "Hg15 mi
Weather by CustomWeather, © 2014

See weather overviewHow to use our weather pages